Theta_e
330 324 316 313 314 315 316 319 321 320 320 318 315 315 316 316 317 319 321 323 325 324 326 330 331 331 331 331 331 332 335 335 336 335 335 334 333 333 333 328 315 312 312 310 309 308 309 309 310 309 309 312 316 318 317 316 317 318 319 317 314 313 313 312 312 313 313 313 313 313 313 314 313 314 314 314 314 315 316 316 316 317 316 317 317
327 322 315 313 315 316 316 318 319 320 319 317 315 315 316 316 318 319 321 323 324 325 328 331 331 332 332 332 332 333 335 335 336 334 335 334 333 333 332 328 318 313 311 309 308 307 309 309 309 309 311 313 314 315 315 317 318 318 317 314 313 312 312 312 313 313 313 313 313 313 313 313 314 314 314 314 315 315 315 316 316 316 317 317 317
325 320 314 313 315 315 316 318 319 320 319 316 315 315 316 317 318 319 321 323 324 326 330 332 332 332 332 333 332 333 335 336 335 334 334 333 334 333 332 328 319 314 311 308 307 307 308 308 309 311 313 313 313 314 315 317 317 316 314 313 312 312 312 313 313 313 313 313 313 313 313 314 314 314 314 314 314 315 315 315 316 316 316 316 317
324 318 313 314 315 316 316 318 319 320 318 315 315 315 316 317 318 319 321 322 325 328 331 332 332 332 332 333 332 334 335 336 336 335 334 334 334 333 332 330 323 317 311 308 307 307 308 308 310 312 313 313 313 314 315 316 315 314 312 312 312 312 313 313 313 313 313 313 313 313 313 313 314 314 314 314 314 314 315 315 315 315 316 316 316
324 317 313 315 315 316 316 317 320 320 317 315 314 316 317 317 319 320 321 324 327 331 332 332 333 332 333 332 333 334 335 335 335 335 335 335 334 333 333 332 327 319 311 308 307 307 308 309 311 311 312 312 313 314 314 314 313 313 312 312 313 313 313 313 313 313 313 313 313 313 313 313 313 313 313 313 313 314 314 315 315 315 315 315 316
322 315 313 314 316 316 316 318 320 320 317 314 315 316 317 318 319 321 323 327 330 331 331 332 333 333 333 333 333 334 334 334 335 334 334 334 334 334 333 332 327 316 311 309 307 308 308 310 311 312 312 312 313 313 313 313 313 313 313 313 313 313 313 313 313 313 313 313 313 313 312 312 312 312 313 313 313 313 314 314 315 315 315 315 315
321 315 314 314 316 316 317 318 320 319 315 314 315 317 318 319 321 324 327 330 331 331 331 332 332 333 333 333 333 333 334 333 333 332 332 331 332 333 332 333 326 314 311 309 307 308 309 310 311 312 313 314 314 314 314 313 314 314 313 314 314 314 314 314 313 313 313 313 313 313 312 313 313 312 312 313 313 313 314 314 314 315 315 315 315
322 316 313 315 316 317 317 319 320 318 314 314 316 318 320 322 325 327 330 331 331 331 332 332 332 332 333 332 331 332 331 331 331 329 327 326 328 330 329 327 318 312 312 309 308 309 310 312 313 312 314 315 315 315 314 314 314 314 314 315 315 316 316 315 314 313 314 314 314 314 315 317 316 314 312 312 313 313 313 314 314 314 315 315 315
326 318 313 315 316 317 318 319 320 317 314 315 318 321 322 324 326 329 330 331 331 331 332 332 332 332 332 331 329 329 327 325 325 323 321 319 320 320 319 316 312 312 311 308 309 311 311 314 315 315 316 317 317 316 315 315 315 316 317 318 319 319 318 317 317 316 316 316 317 318 319 322 319 314 314 314 313 313 313 314 314 314 315 315 316
328 321 314 315 316 317 319 320 319 317 315 317 320 322 323 325 327 329 330 330 331 331 332 332 332 331 330 328 325 323 320 318 317 316 314 312 311 311 310 310 310 312 311 309 310 312 314 314 316 316 318 318 319 318 318 319 319 320 320 320 320 319 318 319 320 320 320 320 321 322 323 327 321 316 320 322 320 317 314 314 315 315 316 316 316
329 321 315 315 316 318 319 320 319 316 316 319 322 323 325 326 327 329 330 330 330 331 331 331 331 328 325 322 319 317 314 313 312 310 309 308 308 308 308 308 310 312 311 310 311 314 316 316 317 318 319 320 321 321 322 324 324 323 321 321 320 320 321 321 321 321 323 323 323 323 327 329 325 321 326 329 328 326 320 316 315 317 317 317 317
328 320 315 315 317 319 320 320 318 316 318 321 323 325 326 327 328 329 329 329 329 330 330 329 326 322 318 315 313 312 311 309 308 308 308 307 308 308 308 309 311 312 311 310 312 315 317 318 319 320 322 323 324 324 325 326 326 324 322 322 322 322 323 322 322 323 325 325 324 326 329 331 329 327 329 331 331 330 329 322 316 317 318 318 318
329 319 315 315 317 319 320 319 317 317 320 323 324 326 327 327 328 328 328 328 328 328 327 324 321 317 313 311 311 310 309 308 308 308 308 308 308 308 308 309 311 312 311 311 313 316 318 319 320 321 323 325 326 326 326 326 326 325 324 323 323 323 323 323 325 327 327 326 327 329 330 331 330 330 331 331 330 330 331 327 321 318 319 320 320
326 318 315 316 319 320 320 318 317 319 322 324 325 326 327 328 329 329 329 328 328 327 324 320 317 314 312 310 310 308 308 308 308 308 308 308 309 309 309 310 311 312 311 311 312 315 318 319 321 322 324 325 326 326 326 326 327 326 325 325 325 324 324 325 326 328 327 327 329 330 330 331 330 330 331 332 331 331 331 330 327 322 321 322 321
321 316 315 317 320 320 319 318 318 321 324 325 325 326 327 328 329 329 328 327 327 325 321 317 315 314 311 310 309 308 308 308 308 308 308 309 309 309 310 311 312 312 311 311 311 313 316 318 320 321 323 325 325 325 326 327 328 327 327 326 327 326 326 326 327 328 326 327 330 331 330 331 330 331 332 332 331 331 331 330 329 326 325 323 322
318 315 316 318 320 320 319 318 320 323 325 326 326 327 328 329 330 330 328 327 326 323 319 316 314 313 310 309 308 308 308 308 308 308 308 309 309 310 311 313 313 311 311 311 310 311 312 315 318 320 322 323 325 325 326 327 328 328 328 328 328 327 326 327 328 328 326 328 331 331 330 330 330 331 332 332 331 331 331 329 329 328 327 323 322
317 315 317 319 321 320 319 319 322 324 326 327 327 327 329 330 330 330 329 328 325 322 318 315 314 312 309 309 308 308 309 309 309 308 308 308 309 309 311 313 313 311 310 311 311 310 310 312 315 317 320 322 324 326 326 327 328 328 328 328 328 328 329 329 329 329 328 329 329 330 330 330 330 332 332 332 332 332 330 329 329 330 330 326 323
316 316 318 320 321 321 320 321 323 326 327 327 327 329 330 330 331 330 330 328 324 320 317 316 314 311 309 308 308 308 309 309 309 309 309 308 309 309 310 312 313 311 310 311 311 311 311 311 313 315 318 320 322 324 325 326 327 328 328 328 329 329 330 330 330 330 328 327 328 330 330 330 331 332 332 332 332 331 330 330 331 331 331 330 328
315 316 319 320 321 322 322 323 324 326 327 327 329 330 331 331 331 331 330 327 324 320 317 316 314 311 309 309 309 309 309 310 309 309 309 309 309 309 310 311 312 311 310 311 311 311 311 311 311 312 314 316 317 319 321 324 325 324 322 326 329 330 331 331 331 329 327 327 330 330 330 331 331 332 332 332 331 330 331 332 332 332 332 332 331
316 317 319 321 321 322 323 324 325 327 327 328 329 331 332 331 331 331 329 327 323 320 318 316 314 311 311 311 311 312 312 312 312 311 310 309 309 309 311 312 312 311 310 311 312 312 312 313 313 312 312 313 314 315 317 319 319 317 317 322 327 328 329 331 330 329 328 329 331 331 331 331 331 332 332 331 331 331 332 332 332 332 332 332 332
316 317 320 321 322 322 323 323 324 326 327 328 330 331 332 332 332 331 328 326 323 321 318 315 314 313 313 314 314 314 314 314 315 315 315 313 310 309 310 312 313 313 312 312 313 313 314 314 314 315 315 314 315 315 316 317 317 316 317 320 323 323 325 327 328 329 330 331 330 330 330 331 331 332 332 331 331 332 333 333 332 332 332 332 331
317 317 319 320 321 321 321 321 322 324 327 329 331 331 331 332 332 330 328 325 323 321 317 314 315 315 315 316 316 317 318 319 320 322 323 321 317 314 312 311 312 313 314 314 315 315 315 316 316 317 316 316 317 318 319 320 321 322 323 324 325 324 325 326 328 330 331 330 330 330 330 331 331 331 331 332 332 333 333 333 332 332 332 332 332
320 317 317 319 320 320 319 319 320 322 326 328 330 330 331 332 331 330 327 325 323 320 315 314 316 316 317 317 319 323 325 326 327 328 329 328 326 323 320 316 314 313 312 313 313 314 315 315 315 316 316 317 318 319 321 324 326 327 328 328 328 327 327 327 328 329 330 330 330 330 330 331 330 331 332 332 333 333 333 333 332 332 332 332 332
324 319 316 316 318 319 318 318 319 323 326 328 328 330 332 332 331 329 327 325 323 318 314 316 318 319 319 320 323 327 330 330 330 330 330 330 330 330 328 326 323 319 317 315 314 314 315 315 313 313 316 319 320 320 321 323 325 327 328 329 329 330 330 329 328 328 329 329 329 329 330 330 331 331 332 333 333 333 333 332 332 331 331 332 332
328 321 316 315 316 317 317 317 319 323 327 327 327 330 332 332 330 328 326 325 321 316 314 316 320 323 324 323 326 329 331 331 331 331 331 331 331 332 332 331 330 328 326 324 323 322 322 321 318 317 320 323 324 324 323 323 325 327 329 330 330 332 332 331 331 330 330 331 330 330 330 331 332 333 332 333 333 333 333 332 332 331 331 331 331
329 321 316 315 315 316 317 318 319 323 326 326 327 330 332 331 329 328 325 322 318 314 314 318 322 326 328 328 330 331 332 331 331 331 331 332 331 332 333 333 332 331 332 331 330 329 329 328 325 325 325 327 328 328 329 328 329 330 330 331 331 331 331 331 331 331 331 332 332 332 332 332 333 333 332 332 333 333 333 333 332 332 331 331 331
328 321 319 318 317 317 318 318 319 322 325 325 326 330 331 330 329 327 324 319 315 315 318 323 326 328 329 330 331 332 332 332 332 330 331 332 332 332 332 333 333 331 332 332 332 331 331 331 331 330 330 330 330 331 331 331 331 331 331 331 331 331 331 331 330 330 331 331 332 332 332 333 333 332 332 332 333 334 333 333 333 332 332 331 332
327 323 322 322 321 320 319 319 319 322 324 325 327 329 330 330 329 327 323 318 316 318 322 325 327 328 329 330 331 332 332 332 332 330 331 332 333 333 332 333 333 332 332 332 331 330 331 332 332 332 332 332 332 332 332 331 331 331 331 331 331 331 331 331 331 330 330 331 332 332 332 332 332 332 332 333 333 333 333 333 333 332 332 332 332
328 326 326 325 325 324 322 321 321 323 325 327 328 329 331 330 329 328 323 319 318 320 323 324 325 327 329 329 331 332 332 332 332 331 331 332 333 333 332 333 333 332 331 331 330 330 330 330 331 331 331 331 331 330 330 331 331 330 330 329 329 329 330 330 330 330 330 330 331 331 332 332 332 332 332 332 332 332 332 332 331 331 332 332 332
329 328 329 328 328 328 326 323 321 323 325 327 329 330 330 330 330 328 325 324 323 323 324 325 325 326 329 330 331 331 332 332 332 332 332 332 332 332 332 332 332 331 331 330 330 329 328 328 328 328 329 329 329 329 329 330 330 330 330 329 329 329 329 329 329 329 330 330 331 331 331 331 331 331 331 331 331 331 332 331 330 330 331 331 332
329 330 330 330 330 330 328 325 323 324 326 327 327 329 330 331 330 327 326 327 327 327 326 325 326 327 328 329 330 332 333 333 332 332 332 332 332 332 332 332 332 332 330 330 329 328 327 328 328 328 328 329 330 330 330 330 330 330 330 330 330 329 329 330 330 330 330 330 330 330 330 330 330 331 330 330 331 331 332 332 331 330 330 331 330
330 330 331 331 331 331 331 330 329 329 329 328 325 328 330 330 328 326 326 327 328 328 325 324 326 327 328 329 330 332 334 333 332 332 333 333 332 332 332 332 333 332 330 329 328 328 328 328 328 329 329 330 331 331 330 330 329 329 329 329 329 329 330 330 330 330 330 329 330 330 331 330 330 330 330 330 330 331 332 332 331 331 331 331 330
332 331 331 332 332 333 334 333 331 327 328 329 325 327 330 329 328 326 327 328 329 328 327 326 327 327 328 329 331 333 334 333 332 332 333 333 332 332 332 332 333 332 330 329 329 328 328 328 328 328 329 330 330 331 331 330 329 329 329 329 329 329 330 330 330 330 329 329 330 330 331 331 330 330 330 330 330 331 331 331 331 332 332 332 331
333 332 332 333 334 336 337 333 328 321 322 326 324 327 330 329 328 327 329 331 331 329 329 329 328 329 330 330 332 334 334 332 332 333 333 333 332 332 332 332 332 332 331 330 330 329 329 329 328 328 329 329 329 330 331 330 330 329 329 328 328 329 330 330 329 328 328 329 329 330 331 331 331 330 330 330 331 331 330 331 331 331 332 332 332
333 333 334 335 336 338 336 332 327 321 318 321 324 328 330 328 329 329 331 333 332 331 331 331 331 332 332 332 333 333 333 331 331 333 333 333 333 332 332 332 332 332 332 331 330 330 330 330 329 329 329 329 330 330 331 330 329 328 328 328 329 329 329 329 328 328 328 328 328 329 331 332 332 331 331 331 331 330 330 330 330 331 331 332 331
334 334 336 337 339 338 335 332 329 325 321 322 325 328 328 328 331 332 333 334 334 333 332 333 334 334 334 333 333 333 331 331 331 332 333 333 333 333 333 333 333 333 333 331 331 331 330 329 329 329 329 329 329 330 330 330 328 327 328 328 329 329 329 329 328 328 328 328 329 330 331 331 332 331 331 330 330 329 329 329 330 330 330 331 330
335 336 338 339 340 337 334 333 331 330 328 328 329 329 330 332 333 334 334 334 335 335 333 333 334 334 334 334 333 332 331 330 330 331 332 332 333 333 333 333 333 333 333 332 332 331 330 329 328 328 328 328 328 328 329 328 327 327 326 327 328 328 328 328 328 328 328 328 329 330 330 330 330 330 329 329 328 328 328 328 328 328 329 329 328
338 339 340 340 340 337 334 333 333 333 332 332 332 332 332 333 334 335 335 335 335 336 335 334 333 333 334 334 334 333 331 331 330 330 330 331 332 333 333 333 333 333 332 332 331 331 330 329 328 328 327 327 327 327 326 326 326 326 326 325 325 325 326 327 327 327 328 328 328 329 328 328 329 328 327 327 326 327 327 327 327 327 327 327 327
341 341 341 340 339 337 335 334 334 334 333 333 332 332 332 333 334 335 336 336 336 335 335 334 333 333 334 334 334 332 331 331 329 329 330 332 332 332 332 332 332 331 331 331 330 330 330 329 328 328 327 327 327 326 325 325 326 326 324 323 323 324 325 325 326 327 327 327 327 327 327 327 326 326 325 324 323 323 323 324 325 325 326 326 325
341 340 340 340 338 336 336 335 334 334 333 333 332 332 332 333 334 335 335 335 335 334 334 334 333 334 334 334 333 331 331 330 329 330 331 332 332 331 332 331 331 330 330 330 330 329 329 329 328 328 328 328 327 326 325 325 324 322 320 319 320 322 324 325 326 326 326 326 326 326 325 324 323 322 320 318 316 316 316 317 318 320 321 322 323
341 340 339 338 337 336 335 335 334 333 333 333 333 333 332 333 334 334 334 334 334 333 333 334 334 334 334 334 332 331 330 331 331 332 332 332 331 331 331 331 331 330 330 330 329 329 328 328 327 327 328 326 325 324 322 321 319 316 315 316 317 320 322 324 325 325 325 325 324 324 323 320 318 315 311 308 307 307 307 307 308 309 311 313 316
340 339 338 337 336 336 334 334 333 333 333 333 333 332 332 333 333 334 333 334 334 334 333 334 334 334 334 333 332 332 332 332 333 333 332 332 331 331 331 331 330 330 329 329 328 328 327 327 327 327 325 322 320 319 317 316 314 313 313 314 317 319 322 323 324 324 323 321 321 320 317 313 309 306 303 301 301 300 301 300 301 301 302 303 304
338 336 336 336 336 335 334 333 333 332 333 333 332 331 333 333 333 334 334 334 335 334 334 335 334 334 333 332 331 332 332 332 332 332 331 331 331 331 331 330 329 329 328 328 327 327 327 327 326 323 320 317 316 315 314 314 313 312 312 314 316 317 321 324 321 319 318 317 316 313 308 304 301 300 299 299 299 299 299 299 298 298 298 298 298
335 334 335 335 335 334 333 333 333 333 333 333 331 331 332 334 334 334 334 335 335 335 334 334 334 333 332 331 331 331 331 330 330 330 329 329 330 330 330 329 328 328 327 327 327 327 327 325 322 318 316 314 314 313 313 312 311 311 310 311 313 314 317 317 314 314 313 311 310 307 302 300 299 299 299 298 298 298 298 298 298 298 298 298 297
334 333 333 333 334 333 332 333 333 333 334 333 332 331 332 334 335 335 335 335 335 334 334 334 333 332 332 331 331 330 330 329 329 328 328 329 330 329 328 327 327 326 326 326 326 325 323 320 317 314 313 312 312 311 311 310 309 309 307 307 309 311 310 307 307 310 309 306 305 302 299 299 298 298 298 298 298 297 297 297 297 297 297 297 297
333 333 333 333 333 332 332 333 333 334 334 334 333 333 334 334 335 334 334 334 335 334 333 333 332 331 331 331 330 330 329 329 328 327 328 328 328 327 326 325 325 325 325 324 323 320 317 315 313 311 310 310 310 310 309 308 307 305 304 304 304 305 304 302 303 305 304 302 302 300 298 298 298 298 298 298 298 297 297 297 296 297 297 297 297
333 333 333 333 333 333 332 333 333 334 334 334 334 334 335 334 335 334 333 333 334 333 332 331 331 331 330 329 329 329 329 328 328 327 327 326 325 324 324 323 324 323 322 319 317 314 312 311 310 309 308 308 307 306 305 304 303 303 302 302 301 301 301 301 301 300 300 300 300 299 298 298 297 297 298 297 297 297 296 297 296 296 296 296 297
333 333 333 333 334 333 333 333 334 334 334 334 334 335 334 334 334 334 333 333 333 333 331 330 330 330 329 329 329 329 328 328 328 327 325 323 322 322 323 323 322 320 316 313 312 310 309 308 307 306 305 304 303 303 302 302 302 302 301 301 301 301 300 300 300 299 299 299 299 299 299 298 297 297 297 297 296 296 296 296 296 296 296 296 296
333 333 333 334 335 334 334 334 334 334 334 334 334 334 334 333 334 333 332 332 332 332 331 330 330 329 328 328 328 328 328 327 326 324 322 320 321 322 322 320 318 314 312 310 308 307 307 306 304 303 302 302 301 301 301 301 301 300 300 300 300 300 299 299 299 299 299 299 299 299 299 298 297 296 296 296 296 296 296 296 296 296 296 296 296
333 333 334 334 335 335 334 334 334 334 334 334 335 334 333 333 333 333 332 332 332 332 332 331 331 329 328 328 327 327 327 325 323 321 320 320 320 320 318 316 313 310 308 307 306 305 304 303 302 301 301 301 301 301 300 300 300 300 300 299 299 299 299 299 299 299 298 298 298 298 298 298 298 297 296 295 295 295 295 295 296 295 295 296 296
333 334 334 335 335 335 335 335 334 335 335 335 335 334 334 333 333 333 333 332 332 332 332 331 331 330 328 327 326 325 324 322 321 320 319 319 318 316 314 311 309 307 305 304 303 302 301 301 301 301 300 300 300 300 300 300 300 300 300 300 300 299 299 299 298 298 297 297 297 297 297 297 297 297 296 296 296 296 295 295 295 295 295 295 295
Wind_Speed
20 17 16 15 15 16 18 19 19 17 16 16 15 14 14 13 13 12 12 11 10 9 9 10 10 10 11 11 11 11 11 10 10 9 9 8 8 8 9 10 11 11 9 7 5 5 7 9 11 12 13 14 14 14 14 14 15 16 16 15 16 18 18 17 17 17 16 16 15 15 14 14 14 14 14 13 14 15 15 16 16 16 16 16 16
23 20 18 17 16 18 19 19 19 18 17 16 16 15 14 13 13 13 12 11 10 9 9 10 10 10 10 11 10 10 10 10 9 9 8 8 8 9 9 10 11 12 10 8 6 8 10 12 13 14 15 16 16 16 17 17 17 17 16 16 17 17 17 17 17 16 16 15 14 14 14 14 13 14 14 13 14 15 15 16 16 16 16 17 17
23 21 19 18 17 19 20 20 19 18 17 17 17 16 15 14 13 13 12 11 10 9 9 10 10 10 10 10 9 10 10 9 9 8 8 7 8 9 9 9 10 12 11 9 8 10 11 13 14 15 16 17 18 18 18 17 17 16 17 17 17 17 16 16 16 16 15 15 15 15 15 15 15 15 15 15 15 15 15 15 15 15 16 17 17
21 20 20 19 19 19 20 20 19 18 18 17 17 16 16 14 13 13 12 11 10 10 9 10 10 10 9 9 9 9 9 8 8 8 7 7 7 8 9 9 10 12 11 9 9 11 12 14 16 17 18 19 19 19 18 17 17 17 17 17 17 16 16 15 15 15 15 15 15 15 16 16 16 16 16 16 16 16 17 17 17 17 17 17 18
20 20 19 19 20 20 21 20 20 19 18 18 18 17 16 15 14 13 13 12 11 10 10 9 9 9 9 8 9 9 9 8 7 7 7 6 7 9 8 7 8 11 10 9 9 12 13 16 17 18 19 19 19 19 18 17 17 16 16 16 16 15 15 14 14 14 14 14 15 15 16 16 16 16 16 16 16 17 17 18 18 18 18 18 18
19 19 19 19 20 20 20 20 20 19 19 18 18 17 16 15 14 13 13 12 11 10 10 9 9 9 9 8 8 9 8 7 7 6 6 6 7 7 6 6 7 9 9 9 10 12 14 17 18 19 20 19 19 18 18 17 17 16 16 15 15 14 14 13 13 13 13 14 14 15 16 16 16 16 16 16 17 17 17 18 18 18 18 18 18
18 17 18 18 19 20 20 20 20 20 19 19 18 18 17 15 14 13 13 12 11 10 10 9 9 9 8 8 8 8 8 7 6 6 5 4 5 5 5 5 7 8 8 9 10 13 15 17 18 19 19 19 18 17 17 16 15 15 15 14 13 13 12 12 11 12 12 13 14 15 16 17 17 17 17 17 17 18 18 18 18 19 18 17 17
18 17 17 17 18 19 20 21 20 20 20 19 19 18 17 15 14 14 13 12 11 10 9 9 8 8 8 7 7 7 6 5 5 4 3 3 3 3 4 4 5 7 8 9 11 13 15 16 17 18 18 18 17 16 15 15 14 14 13 13 12 11 11 10 10 10 11 12 13 15 16 18 19 19 18 18 18 18 18 19 19 19 19 18 18
18 17 17 17 18 19 20 21 21 20 20 20 19 18 16 15 14 14 13 12 11 10 9 9 8 8 7 6 5 5 4 3 3 3 2 2 2 2 2 3 5 7 8 10 12 14 15 16 16 17 17 16 15 14 14 13 12 12 11 11 11 10 10 9 9 9 10 11 12 14 16 18 20 20 20 20 20 19 19 19 20 20 19 19 19
17 17 18 18 19 20 20 20 21 21 21 20 19 17 16 15 14 14 13 12 11 10 9 8 8 7 6 5 4 3 3 3 3 3 3 3 3 3 3 4 6 7 9 10 13 15 15 15 16 16 15 15 14 13 12 11 10 9 9 9 10 10 9 9 8 8 9 10 12 14 16 18 19 20 21 22 22 22 21 21 20 20 20 20 19
17 18 18 19 20 20 21 21 21 21 21 20 18 17 16 15 14 14 13 11 11 10 9 8 7 6 5 4 4 4 4 4 5 5 5 5 4 4 5 6 7 9 10 11 13 15 16 15 15 15 14 14 13 11 10 9 8 7 7 7 8 8 8 8 8 8 9 10 12 14 16 18 19 18 20 21 22 22 23 22 21 20 20 19 19
17 19 20 20 22 21 21 21 21 21 21 20 18 16 15 15 14 13 12 11 10 10 8 7 7 6 5 5 5 5 5 5 6 6 6 6 6 6 6 7 9 10 11 11 14 16 16 16 15 14 14 13 12 10 9 8 7 6 5 5 5 6 7 7 7 8 9 11 12 13 15 16 17 17 18 19 20 22 22 23 22 20 19 19 19
18 19 20 21 22 22 21 21 21 21 21 19 18 16 15 15 14 13 12 11 10 9 8 7 6 6 6 6 6 6 6 6 6 7 7 7 7 7 7 8 9 11 11 12 13 15 15 15 15 14 13 12 11 10 8 7 6 5 4 3 3 4 5 6 6 7 8 10 11 12 13 14 16 16 16 18 19 20 21 22 22 19 19 20 20
18 19 20 22 22 22 22 22 22 22 21 19 17 16 15 15 14 13 12 11 10 9 8 6 7 6 7 7 7 7 7 6 6 7 8 8 8 8 8 9 10 11 11 12 13 14 14 14 14 13 12 12 10 9 7 6 5 4 2 2 3 4 5 5 6 7 7 9 10 10 11 12 14 15 15 16 18 19 21 21 21 19 19 21 20
19 19 20 22 22 23 22 22 23 22 21 19 17 16 15 14 14 13 12 11 10 8 7 6 7 7 7 8 8 8 7 6 7 8 8 8 8 9 9 10 11 12 12 12 12 13 13 13 13 12 12 11 10 9 7 6 5 3 2 0 2 4 5 6 7 7 7 8 9 9 10 10 12 13 14 16 17 19 20 21 21 20 20 20 19
19 20 21 22 22 22 22 22 22 22 20 18 17 16 15 14 14 13 12 11 9 8 7 7 7 7 8 8 9 8 7 6 7 8 8 8 8 9 9 10 11 12 12 12 12 12 12 13 12 12 11 11 10 9 7 6 5 4 3 2 2 4 6 7 7 7 7 7 8 9 9 9 11 12 13 15 17 19 19 20 20 20 20 19 17
19 20 21 21 21 22 22 22 22 21 19 18 16 16 15 15 14 13 12 11 9 8 7 7 7 7 8 9 9 8 7 7 7 8 8 8 8 9 9 9 11 12 12 12 11 11 11 11 12 12 11 10 10 9 7 6 5 4 3 3 3 3 5 6 7 7 7 9 9 9 8 9 10 11 12 15 17 18 19 20 20 20 20 19 17
19 20 21 21 22 22 23 22 22 20 19 18 16 16 15 15 14 13 12 10 9 8 7 7 7 8 9 9 9 8 8 7 7 8 8 8 8 9 9 9 10 11 11 11 11 11 10 10 10 11 10 10 10 8 7 6 5 5 4 5 5 5 5 5 6 7 8 9 9 9 8 9 9 11 12 15 17 18 19 19 19 19 19 19 18
19 21 22 22 23 22 22 22 22 20 19 18 17 16 15 14 14 13 11 10 9 8 7 7 8 8 9 9 9 9 8 8 8 8 8 8 8 8 9 9 9 10 10 10 10 10 9 9 9 9 9 9 8 8 7 7 6 6 6 7 7 6 6 6 6 8 9 9 9 8 9 9 10 11 12 14 16 17 18 19 19 19 18 18 19
20 23 24 24 23 22 22 21 21 20 18 18 17 17 16 15 14 12 11 10 9 8 8 8 8 9 9 9 9 9 9 8 8 8 8 8 8 8 8 9 8 9 9 8 8 8 8 8 8 8 8 8 7 7 7 7 7 7 6 7 8 8 8 7 8 8 9 8 8 8 9 10 11 11 12 13 15 16 17 18 19 18 18 18 18
22 24 24 23 23 21 21 20 20 19 19 18 17 17 16 15 14 12 11 9 9 8 8 9 9 9 9 9 9 9 9 8 8 8 8 9 8 8 8 8 8 7 7 7 7 6 7 6 7 7 7 7 7 7 7 7 6 5 5 5 6 7 7 7 7 7 7 8 8 9 9 10 12 13 13 13 14 16 17 17 18 17 17 17 17
25 26 25 24 22 20 20 19 20 20 20 19 18 18 16 16 14 12 11 9 9 9 9 10 10 9 9 9 9 9 9 8 7 7 7 8 8 7 7 7 6 6 5 5 5 4 4 4 5 5 5 6 6 7 7 6 5 4 3 3 4 4 5 6 6 6 7 8 8 8 9 11 12 13 13 13 15 16 17 17 16 16 16 16 17
27 27 25 24 22 21 20 20 20 20 20 19 18 18 16 15 13 12 10 9 9 9 10 11 10 10 9 8 9 9 8 7 6 5 5 6 7 6 6 6 5 4 4 3 3 3 2 2 3 4 4 4 6 8 8 6 4 3 2 3 4 4 5 6 7 7 8 9 8 9 10 11 12 13 13 14 15 16 18 17 15 13 14 15 17
26 25 24 24 23 22 21 20 20 20 20 19 19 18 16 15 13 12 10 9 8 9 11 11 10 10 9 8 8 7 6 6 5 4 3 4 5 5 5 4 4 3 3 2 2 1 1 1 2 3 4 3 4 6 7 6 5 4 4 4 4 5 6 7 7 8 9 9 9 9 10 11 12 12 13 14 14 16 17 16 14 13 13 14 15
25 24 24 23 23 22 20 20 20 20 19 18 18 17 16 14 13 12 11 10 9 10 12 12 11 9 8 7 7 6 5 5 4 4 4 4 4 4 4 3 3 2 2 2 1 1 1 1 2 3 3 3 3 4 5 6 5 5 6 6 5 5 6 6 7 8 9 10 10 10 11 11 12 13 13 13 14 16 15 14 14 14 14 14 14
26 25 25 23 22 22 20 19 19 19 19 18 17 17 16 14 13 11 10 10 10 11 12 12 11 9 8 7 6 5 4 4 3 4 4 4 3 3 3 2 1 2 2 2 1 2 2 3 3 3 3 4 4 5 5 5 6 6 6 7 6 6 7 7 8 10 11 11 11 11 11 11 12 13 13 13 13 14 14 13 13 15 16 16 15
28 26 25 23 22 21 20 19 19 18 18 16 15 15 15 14 12 11 10 11 11 12 12 11 10 9 8 7 6 6 5 4 3 3 4 3 3 3 2 2 2 2 3 3 2 2 3 4 5 5 5 5 6 6 7 8 7 7 8 8 8 9 10 10 11 12 13 13 12 12 12 13 13 14 14 13 13 13 13 12 14 16 16 15 14
28 27 25 23 21 21 20 19 18 17 17 16 14 14 15 15 13 12 11 11 11 11 11 10 9 9 8 6 5 5 4 4 3 4 3 2 2 2 2 2 3 3 3 4 3 3 4 5 5 6 6 5 6 6 7 8 8 8 9 10 11 12 13 13 14 14 14 13 13 13 13 14 14 13 13 12 12 12 12 11 12 14 14 13 13
28 27 25 23 21 20 19 18 17 17 17 16 14 14 16 15 14 13 12 11 11 11 10 9 8 8 6 5 4 3 3 2 2 3 2 2 2 2 2 2 3 3 4 4 3 4 4 4 5 5 5 5 5 6 7 8 9 10 10 11 12 13 13 14 14 14 14 14 13 13 13 14 13 12 11 11 10 10 10 10 11 11 11 12 13
28 26 24 22 21 20 19 18 17 17 17 16 14 15 16 15 14 14 12 11 10 10 8 8 8 7 5 3 2 1 0 1 1 0 1 1 2 2 3 3 2 3 4 4 3 3 3 3 3 4 4 5 5 6 7 8 9 10 10 11 12 12 12 13 13 13 13 13 13 13 14 14 13 12 12 11 11 12 11 11 11 11 11 12 13
28 26 23 21 20 20 19 19 18 17 16 16 15 16 16 15 14 14 13 11 10 8 7 7 7 6 4 2 1 1 2 2 3 2 2 2 2 3 3 3 3 4 4 4 3 3 3 3 3 4 4 5 6 7 8 9 9 10 10 11 11 11 11 12 12 12 12 12 13 13 14 14 14 13 12 11 11 11 11 11 12 12 12 12 13
28 26 22 20 20 20 19 18 17 16 16 16 16 17 16 15 14 13 12 11 9 7 6 6 6 5 3 1 1 3 3 4 4 4 4 4 4 4 4 4 5 6 6 5 4 3 3 4 4 5 5 6 7 8 9 10 10 11 11 12 12 12 11 11 11 11 11 12 12 12 13 13 13 12 11 11 10 11 11 12 12 12 13 13 14
27 25 21 20 20 20 19 18 16 16 16 17 17 18 17 16 14 13 11 9 8 6 5 5 4 3 1 1 3 4 5 6 6 5 5 5 5 5 4 6 7 7 6 5 5 4 4 5 5 6 7 8 9 10 10 11 11 11 12 12 12 11 11 11 11 11 12 12 12 11 11 12 12 11 11 10 10 11 11 12 12 12 13 14 14
25 24 21 20 21 20 19 17 16 15 15 17 18 18 17 16 14 12 10 8 7 6 5 4 2 1 1 3 4 5 6 7 7 6 6 6 6 5 5 7 7 8 7 7 6 6 5 6 7 8 9 10 10 10 11 11 11 12 12 12 12 12 12 12 12 12 12 12 12 11 11 12 11 11 11 11 11 11 12 13 13 14 15 15 15
24 23 21 22 22 20 19 17 15 13 13 16 18 18 16 15 13 11 10 8 6 5 4 3 3 3 4 5 5 6 7 7 7 6 6 7 7 6 6 7 8 9 9 8 7 7 7 7 8 9 10 11 11 11 11 11 11 12 13 12 12 12 13 13 13 13 12 12 12 12 12 11 11 11 11 12 12 13 13 13 14 15 16 16 16
24 23 23 24 23 21 19 17 15 13 12 14 16 16 15 14 12 11 9 7 5 4 5 5 4 5 6 6 6 6 6 6 6 6 6 7 8 8 8 9 10 10 10 9 9 9 9 9 9 10 11 11 12 12 11 11 11 12 13 13 13 13 14 14 14 13 12 12 11 11 11 10 11 11 12 12 13 13 13 14 14 15 16 16 16
25 25 25 25 23 21 19 17 16 14 13 14 14 14 13 12 10 9 7 6 6 7 7 7 6 7 7 7 6 6 6 6 6 6 7 8 8 9 9 10 11 11 10 10 11 11 11 11 12 12 12 13 13 12 12 11 11 11 13 13 13 14 14 14 13 12 11 11 11 10 10 10 10 11 12 12 12 13 13 13 14 14 15 15 15
25 25 25 24 23 21 19 18 16 14 14 13 13 12 11 10 9 8 8 8 9 9 10 9 8 8 8 7 7 7 7 6 6 7 7 8 9 9 10 11 11 11 11 12 12 13 12 13 13 14 14 15 15 14 14 13 12 13 13 14 14 14 14 13 12 11 10 10 10 11 11 11 11 12 12 12 13 13 14 14 15 15 16 15 15
25 25 24 24 24 21 20 18 16 15 14 13 13 12 10 9 9 9 10 11 11 11 11 11 10 9 8 8 7 8 8 8 7 7 7 8 9 9 11 12 13 13 13 13 13 13 13 14 14 15 16 16 17 17 16 15 14 14 14 13 13 13 12 12 12 11 10 10 10 10 11 12 13 14 14 14 15 15 16 16 16 17 17 16 15
24 24 25 24 23 21 20 18 16 15 14 14 13 12 11 10 11 11 12 12 12 11 11 11 10 9 9 8 8 8 7 7 6 6 7 8 9 10 12 14 15 15 14 13 13 13 13 14 15 16 17 17 18 18 17 16 14 12 12 11 11 11 10 11 11 11 10 9 9 10 12 13 14 16 16 17 17 17 18 18 18 18 17 16 16
24 24 24 23 22 20 19 17 16 16 14 14 14 13 12 11 12 13 13 13 12 12 11 10 9 9 9 8 8 6 5 5 5 6 7 8 10 12 14 15 16 15 15 14 14 15 15 16 16 17 17 18 17 16 15 14 11 10 9 9 9 9 9 9 10 10 10 9 10 12 13 15 16 16 17 17 17 17 18 18 18 18 18 17 16
25 23 22 21 20 19 17 16 16 15 15 14 14 13 12 12 13 14 13 13 13 12 11 10 10 9 9 8 6 4 4 4 6 7 9 11 12 14 15 16 16 16 16 16 17 17 17 16 16 17 17 17 16 15 14 13 11 10 9 6 4 6 7 8 8 9 10 10 11 12 14 15 16 16 16 16 16 16 16 17 17 18 18 18 17
23 21 21 20 20 19 18 17 16 15 15 15 15 15 14 14 15 15 14 13 13 13 12 11 11 10 9 7 5 4 5 7 8 10 11 13 14 15 16 17 17 18 18 18 18 17 16 15 15 15 15 14 14 14 14 13 13 12 10 5 3 4 5 6 7 10 11 11 11 11 13 15 16 16 16 16 16 16 17 17 17 18 18 19 19
22 21 21 21 21 20 19 19 17 16 15 15 16 16 16 15 16 15 13 13 13 13 12 11 11 10 9 8 7 7 9 10 11 12 13 14 15 16 17 18 18 18 18 17 17 16 14 13 13 13 12 12 12 13 14 14 14 13 10 8 6 2 2 3 7 9 10 11 11 11 14 16 16 16 16 17 18 18 18 18 18 18 19 20 20
23 21 21 21 21 21 20 19 18 17 16 15 16 17 17 17 17 15 13 13 14 13 13 12 11 10 9 9 10 10 11 12 13 14 14 15 16 17 18 18 18 17 17 16 15 14 12 11 11 10 10 10 11 12 13 14 14 13 11 9 7 3 4 8 8 7 8 9 9 13 16 17 18 19 19 19 20 21 20 20 20 20 20 21 21
24 22 21 21 21 21 20 19 18 17 16 15 16 17 17 17 17 16 15 15 15 15 14 13 12 11 10 10 11 12 13 14 15 15 16 16 17 18 18 18 17 16 15 13 12 11 10 9 8 8 9 10 11 12 13 13 13 13 12 10 8 6 9 12 10 8 8 7 8 12 15 16 18 19 20 21 22 23 23 23 23 23 23 23 22
25 23 22 22 22 21 20 19 17 17 16 16 16 16 16 16 16 15 15 15 15 15 14 13 13 12 12 12 12 14 15 16 16 16 17 18 18 17 17 15 14 13 11 9 8 8 8 8 8 9 10 11 12 12 12 12 12 12 12 12 11 11 12 12 12 12 12 10 10 11 13 16 17 18 20 22 22 22 23 23 23 24 24 24 24
26 25 24 24 23 21 19 18 17 17 17 17 16 15 15 15 15 14 14 13 14 14 14 14 13 13 13 13 14 16 17 17 17 17 17 17 15 14 13 11 10 9 7 6 6 7 7 8 9 10 11 11 11 12 12 11 10 11 11 12 12 13 13 13 13 14 14 14 14 15 16 18 18 19 20 22 22 22 23 23 24 24 24 24 24
27 26 25 24 23 21 19 18 17 17 17 17 17 16 16 15 14 13 13 13 14 14 14 13 13 13 14 15 16 17 18 18 17 16 15 14 12 11 10 8 7 6 5 5 5 7 8 9 9 10 10 11 11 11 11 10 10 11 11 11 11 11 11 11 11 12 14 14 16 18 20 20 20 22 22 22 23 22 23 23 24 25 25 26 26
29 27 25 24 23 21 20 19 18 17 17 18 18 17 17 15 14 13 13 14 14 15 15 14 14 14 15 16 17 18 18 17 16 15 13 12 11 9 7 5 4 3 3 5 6 7 8 9 9 10 10 10 10 11 10 11 11 11 10 10 9 9 9 10 11 13 15 15 16 19 21 22 22 23 24 25 24 23 23 23 23 24 24 25 26
30 28 26 25 24 22 21 21 19 18 18 19 18 18 18 16 15 14 14 14 15 15 15 15 15 15 15 16 16 17 16 15 14 14 12 11 9 6 3 2 2 3 4 5 6 7 8 9 10 10 10 10 11 12 12 11 11 11 10 9 10 11 11 12 14 15 16 16 17 19 20 20 21 22 23 24 23 23 22 23 24 25 25 26 27
Wind_Direction
164 166 170 163 164 166 164 161 159 160 153 149 147 144 142 141 142 142 142 137 133 126 118 114 112 112 110 109 106 104 104 104 104 104 102 93 76 64 58 54 49 45 43 44 59 92 104 106 108 110 110 114 120 121 117 114 113 113 113 110 102 96 92 89 87 84 80 74 70 67 63 59 57 56 55 51 48 47 47 46 45 43 43 43 43
160 165 168 163 167 167 165 162 160 160 154 151 148 147 146 146 145 145 145 141 136 129 121 118 117 114 112 108 106 104 103 104 104 103 98 87 70 61 57 56 51 42 42 48 69 100 107 108 110 112 111 114 115 115 114 114 114 114 113 107 100 94 92 90 87 84 79 74 67 61 57 54 52 51 51 48 44 43 43 42 42 40 39 39 39
158 162 166 164 169 168 165 162 162 160 155 153 150 150 148 148 148 147 147 144 139 132 128 123 121 118 114 110 108 107 104 105 104 103 96 82 70 61 54 59 53 42 45 56 82 106 110 111 114 114 112 115 115 115 115 116 115 113 110 104 99 95 93 91 87 83 77 71 64 57 53 51 49 46 45 45 41 39 38 36 36 36 35 35 34
159 161 165 165 168 169 165 162 162 160 157 155 153 152 150 150 150 150 148 146 142 136 134 128 126 121 117 114 111 109 108 108 106 103 94 82 72 61 55 62 52 40 45 61 93 110 111 114 115 114 115 118 118 118 118 118 115 112 109 103 99 96 94 91 87 82 75 68 62 56 52 50 47 42 40 41 39 34 32 31 29 28 28 28 29
160 163 167 167 169 169 166 163 162 161 158 156 154 153 151 152 151 151 150 147 145 141 138 134 130 125 121 118 114 110 110 110 110 105 94 83 72 65 59 59 44 38 49 68 100 113 115 118 117 117 118 120 120 121 120 118 116 113 108 104 101 99 96 91 86 81 73 66 61 56 52 49 44 39 35 35 35 31 28 26 24 22 21 21 21
162 166 169 169 171 169 166 163 162 161 159 158 155 154 153 153 154 153 152 150 148 145 142 139 133 128 124 118 115 112 114 114 111 106 97 89 81 78 62 51 46 44 57 77 106 117 118 121 120 120 120 120 121 122 121 119 118 114 109 105 103 100 95 89 83 77 70 64 59 54 50 47 42 36 31 29 28 27 25 21 20 19 18 17 15
164 168 171 171 173 169 165 162 162 162 160 159 157 155 156 156 157 156 155 154 151 148 143 139 132 127 123 118 116 113 115 115 112 105 97 92 88 89 67 61 57 54 69 89 113 121 121 123 122 122 121 122 122 122 121 120 119 115 111 108 104 99 93 86 79 73 67 62 57 52 48 43 39 34 30 26 23 22 21 17 15 15 15 14 11
166 170 173 173 175 171 166 163 163 162 161 160 159 158 159 159 159 159 158 156 153 149 142 136 129 124 121 119 116 114 116 116 113 102 88 84 86 92 86 80 61 66 87 101 120 126 126 125 123 124 123 124 124 123 122 121 120 117 114 109 104 98 90 81 75 70 65 60 57 52 47 41 36 32 28 24 20 17 16 14 12 12 12 10 8
170 172 175 175 175 172 167 165 164 163 163 162 161 162 161 161 161 161 159 157 154 148 143 135 128 123 120 118 115 110 108 104 98 79 61 61 66 73 90 84 68 89 105 111 127 132 131 128 126 127 126 126 125 124 123 122 120 117 113 106 100 95 87 79 73 68 61 57 56 53 47 41 36 32 30 26 21 17 14 12 12 11 10 9 7
174 176 179 177 175 173 169 166 165 165 165 163 164 163 162 162 162 162 160 158 155 150 145 137 130 125 122 117 113 103 89 79 80 75 71 65 64 65 73 82 92 112 117 120 134 138 136 132 130 130 129 128 125 123 121 119 116 112 105 97 96 91 84 76 73 66 59 56 54 53 46 41 39 36 32 28 24 20 17 14 13 13 11 11 9
179 181 182 179 176 174 170 167 167 166 166 165 165 164 164 163 162 161 161 160 157 153 149 143 136 129 126 121 114 103 93 86 87 88 85 82 78 79 83 92 110 124 124 127 139 143 140 137 135 134 133 130 127 124 119 116 111 105 96 88 91 89 78 67 66 62 57 54 51 49 44 41 40 35 30 25 22 20 17 15 14 14 14 13 12
184 185 184 180 176 173 170 168 167 167 166 166 166 166 164 163 162 162 162 161 159 157 153 148 139 132 128 121 113 103 98 94 94 94 90 89 85 84 89 102 119 130 130 132 142 146 144 142 141 139 137 134 130 128 124 119 111 102 91 78 73 72 72 62 55 56 51 46 44 45 42 39 36 30 26 23 20 17 16 15 13 15 15 13 11
188 188 186 181 175 172 170 169 168 168 167 167 167 166 165 163 162 162 163 162 160 157 154 150 137 127 124 116 110 103 99 98 96 96 92 90 87 86 91 104 123 132 133 135 143 149 149 147 146 145 143 140 137 135 132 126 118 110 94 66 34 33 50 53 47 46 43 38 38 40 37 35 32 25 22 20 18 16 15 14 12 12 12 9 6
190 189 188 181 175 172 171 171 169 169 169 170 169 167 167 164 162 161 162 161 159 157 153 144 129 122 119 112 109 105 101 98 95 95 93 90 87 88 94 105 123 132 134 136 144 150 153 153 152 152 151 148 146 144 142 136 132 130 115 57 2 358 10 25 32 32 34 34 31 31 29 29 26 21 17 16 15 14 12 10 7 4 1 360 0
191 189 188 181 175 172 172 173 172 171 171 171 169 168 166 163 161 161 162 161 157 154 146 133 123 117 113 111 111 108 103 99 97 97 93 90 87 89 97 108 123 132 136 138 144 151 157 160 161 161 159 157 156 155 154 152 153 159 166 201 330 333 343 357 12 16 23 25 20 19 19 21 20 17 12 10 11 10 8 6 3 359 355 356 359
192 188 187 182 177 173 173 174 174 173 171 171 170 168 164 162 162 162 162 160 156 149 138 126 120 113 112 114 114 110 106 105 101 101 96 91 89 90 97 110 126 134 138 141 143 149 157 163 167 168 167 167 166 167 168 166 168 182 206 233 287 317 330 340 354 2 7 7 3 3 7 11 15 14 9 5 7 7 6 5 2 0 359 359 2
192 187 184 181 178 175 175 175 175 175 172 173 171 167 164 164 165 164 163 161 155 145 135 124 118 113 115 116 115 113 108 105 101 99 95 91 89 92 99 109 127 137 141 143 145 148 152 159 165 169 172 174 176 178 180 182 186 198 227 253 273 298 315 327 336 344 351 353 354 356 358 4 11 12 7 3 3 4 5 4 2 2 2 3 4
191 187 183 181 180 178 178 176 177 177 175 174 171 168 166 167 167 166 165 163 155 144 136 126 122 118 117 117 116 117 112 108 101 97 94 92 90 92 101 109 125 137 141 145 148 150 149 154 160 168 174 178 184 190 196 200 206 216 241 260 268 276 290 310 323 335 341 346 350 352 355 2 7 9 6 1 0 2 3 4 3 2 2 3 2
190 187 184 184 184 183 181 179 180 178 177 175 172 169 168 170 169 169 169 163 156 146 139 131 128 121 119 122 120 119 115 111 104 99 95 92 92 94 102 109 122 135 142 146 150 152 152 155 160 167 175 182 190 197 205 213 222 234 247 252 256 263 275 293 310 324 330 337 342 345 349 354 0 5 4 360 358 359 1 3 2 360 359 358 358
190 189 188 188 187 187 185 183 182 180 180 178 174 172 170 172 171 173 170 163 158 148 143 139 134 128 127 126 122 119 115 111 105 99 97 93 93 96 105 113 121 132 140 147 150 155 156 158 162 166 173 178 186 192 201 211 223 235 241 244 251 260 270 284 302 315 322 331 335 339 343 346 354 359 0 358 357 357 357 359 359 357 356 355 354
190 191 191 191 190 188 187 186 185 182 183 182 177 175 174 175 175 176 171 164 159 152 148 144 140 137 134 129 121 119 115 111 107 99 96 92 91 94 104 115 124 134 141 149 152 156 159 162 165 168 173 177 183 189 196 204 215 229 240 254 265 270 274 281 294 309 318 325 329 334 340 346 350 352 354 355 354 352 353 354 354 354 354 353 351
191 191 192 193 192 190 190 191 189 186 187 184 180 180 179 178 178 177 171 167 163 156 152 147 145 143 138 130 120 118 115 112 110 103 96 92 92 92 97 107 117 131 141 149 154 160 166 171 172 176 184 185 188 192 196 200 209 226 251 275 286 286 285 282 289 303 312 318 328 336 341 343 343 345 347 349 351 349 348 348 349 353 352 349 347
192 192 192 194 193 192 193 194 193 190 189 185 184 184 182 181 179 177 174 171 168 159 154 150 148 144 138 132 124 120 113 111 108 103 102 99 98 95 97 101 106 115 127 137 145 160 176 192 192 199 207 201 198 201 203 202 207 227 256 273 289 294 293 290 291 300 306 313 322 329 332 334 334 338 342 346 348 344 343 342 344 349 346 345 343
194 194 192 193 193 194 196 196 195 193 190 188 187 186 183 183 180 179 177 174 173 163 155 154 150 142 137 136 132 126 117 114 107 103 110 109 107 103 100 102 108 113 116 126 129 146 175 216 211 212 217 217 212 213 219 223 233 247 260 274 291 299 302 302 300 303 307 313 316 318 321 325 328 333 339 343 342 340 342 341 337 338 338 339 339
194 194 194 194 193 195 197 195 195 193 191 191 190 186 183 183 182 180 179 176 175 168 163 160 154 143 138 139 139 131 122 120 113 118 123 119 112 106 104 102 115 129 137 146 154 183 225 232 221 225 230 241 247 246 245 248 254 259 267 278 290 304 316 317 316 318 318 319 317 316 318 321 326 331 336 337 337 337 339 338 333 333 332 331 330
191 193 194 193 192 193 194 195 196 194 193 195 191 187 184 183 183 181 179 178 175 172 167 162 154 148 145 145 145 138 131 129 119 128 135 134 127 120 124 117 133 168 180 183 199 217 237 246 244 249 254 264 272 280 281 279 279 279 283 287 299 314 321 320 320 324 325 324 322 322 322 323 327 331 332 331 332 334 335 336 332 332 332 329 330
190 193 192 190 189 188 191 195 196 195 194 196 192 187 184 183 184 181 179 179 174 171 165 157 153 152 154 156 156 151 144 142 141 149 150 149 148 149 163 174 195 203 205 203 212 228 237 240 246 252 258 270 278 287 292 295 297 298 301 306 316 321 322 322 322 326 326 324 325 326 326 326 330 331 329 328 328 330 333 335 334 336 336 335 337
191 192 191 189 187 186 189 194 196 196 195 194 191 187 185 184 183 181 180 177 171 168 164 159 159 159 163 166 164 161 156 151 155 166 163 154 167 190 192 201 219 224 221 219 231 250 251 247 251 254 258 267 274 285 292 300 307 311 316 320 323 322 321 322 323 325 325 323 322 322 323 324 327 329 327 327 326 327 331 333 332 334 332 330 333
195 193 191 188 186 186 189 194 197 199 198 195 190 186 187 187 183 183 184 181 176 173 172 169 169 171 171 173 170 173 171 153 143 158 157 157 186 225 231 225 228 232 232 234 245 253 256 258 261 262 263 269 279 294 305 312 316 318 322 323 322 320 319 320 321 322 321 318 315 314 314 315 316 319 319 319 318 317 320 321 317 318 318 319 321
199 196 191 187 186 188 189 194 198 201 202 198 192 187 189 188 184 186 188 188 188 187 187 185 188 189 181 177 178 191 201 22 8 163 179 185 197 231 248 245 245 251 247 246 253 252 256 264 271 280 286 293 301 311 318 319 319 320 321 321 318 318 317 317 317 316 314 311 309 308 307 308 309 311 312 312 312 311 312 311 308 311 315 317 315
202 199 192 188 189 192 192 195 197 200 203 200 194 189 189 188 187 189 190 194 198 197 198 194 193 194 188 185 211 339 340 331 315 298 277 252 235 247 265 272 278 281 274 263 266 274 280 288 289 296 301 304 311 314 318 319 319 320 318 315 313 313 313 313 314 313 311 308 304 304 303 304 305 306 308 307 308 309 309 308 306 308 312 314 313
204 200 192 190 194 196 195 195 197 199 203 201 194 189 189 189 190 193 194 200 206 204 196 184 181 184 193 220 324 325 315 296 284 286 283 267 255 261 278 283 281 278 280 282 290 303 302 299 296 298 303 306 313 315 318 319 319 318 313 312 314 313 312 313 315 315 314 310 304 299 298 299 300 300 302 304 304 302 303 303 303 306 310 313 313
205 199 191 193 200 199 193 193 197 200 204 201 191 186 188 189 192 195 197 204 210 206 192 180 177 183 212 281 302 299 289 278 274 278 275 267 263 268 277 280 277 271 279 292 297 304 302 300 303 305 309 311 313 314 316 320 320 319 316 317 319 317 316 315 316 315 315 313 307 300 297 296 296 297 300 302 302 301 301 301 302 308 312 313 312
205 197 191 197 204 198 191 193 195 198 202 197 188 184 186 190 194 198 203 209 212 207 199 195 194 209 283 281 278 276 269 269 272 273 267 267 271 273 276 275 274 274 283 294 293 295 298 301 305 306 308 308 310 313 318 324 328 327 322 322 322 321 321 321 320 319 318 315 310 303 297 297 297 300 305 308 309 308 308 307 306 308 309 312 312
204 197 194 200 204 196 191 191 191 190 190 188 184 181 186 192 196 202 207 212 214 215 216 225 236 260 284 279 272 263 255 262 269 269 265 268 273 274 275 273 276 279 284 290 294 300 305 307 308 308 308 309 313 317 321 329 335 332 327 326 324 324 325 324 324 322 320 317 312 304 299 299 301 306 313 316 316 314 314 313 310 309 310 312 313
202 198 197 201 200 194 190 189 186 179 174 176 178 181 188 195 199 205 209 216 229 243 247 251 260 269 281 281 272 259 250 254 260 263 263 265 269 271 275 276 278 281 286 295 304 310 315 317 316 314 313 314 316 319 323 330 337 334 329 327 325 324 325 324 324 322 322 320 314 307 303 305 309 314 318 320 321 319 318 316 313 312 312 313 316
201 199 199 201 198 193 191 188 183 177 172 173 177 185 192 199 205 211 220 235 248 260 262 260 267 275 282 282 269 260 252 248 250 253 259 264 267 270 276 280 284 288 294 302 308 312 317 319 318 317 316 316 317 319 321 324 331 331 325 322 320 319 320 320 321 321 319 318 315 311 311 314 318 320 321 323 323 320 319 318 317 317 315 316 317
200 199 201 203 200 195 192 188 184 181 181 183 187 193 199 207 216 226 239 248 252 260 265 265 272 277 279 274 262 256 251 245 246 248 256 263 266 273 281 284 288 292 297 302 306 310 313 314 316 317 316 316 316 316 317 321 327 327 321 317 314 313 313 314 314 313 311 311 313 314 315 318 320 321 323 324 323 320 317 316 316 316 317 317 318
201 201 204 204 201 197 194 191 188 185 189 194 198 204 212 222 228 236 244 248 252 259 265 267 271 274 270 262 252 247 244 243 243 243 250 258 265 276 283 285 287 291 296 302 307 308 308 310 313 316 316 315 315 315 317 321 325 323 319 315 311 309 306 303 301 300 303 309 314 316 316 319 320 322 323 322 321 319 316 313 312 311 311 311 311
204 205 204 203 202 200 198 196 194 193 195 198 204 210 217 227 233 239 245 248 253 256 261 266 267 268 264 257 251 247 247 248 251 257 261 268 275 280 284 287 290 295 299 303 306 306 306 308 312 314 314 314 313 313 315 319 326 327 323 320 312 303 295 290 289 291 298 308 316 318 318 322 324 323 324 324 324 321 317 315 313 310 307 305 304
205 206 205 203 203 204 205 203 199 200 202 203 208 214 221 231 235 239 245 248 251 253 256 258 258 257 255 253 253 256 264 267 273 281 281 281 283 286 289 293 297 301 304 307 308 309 310 312 315 315 315 314 313 314 318 325 335 338 333 323 307 295 283 277 279 284 298 312 320 321 322 325 326 327 330 332 330 326 323 320 319 317 312 308 304
204 205 206 207 207 208 211 209 205 205 209 213 215 218 225 236 240 241 245 247 247 247 248 248 246 243 240 240 245 257 270 276 281 283 283 285 287 291 295 298 301 304 306 309 311 313 315 316 319 319 319 319 319 323 330 336 343 347 345 330 299 293 285 277 281 290 303 318 325 326 328 332 334 338 342 341 340 338 335 333 332 328 324 322 319
202 205 207 209 209 210 212 210 209 210 214 219 220 221 228 238 239 237 240 245 242 238 239 239 237 232 229 228 226 235 248 262 273 277 281 285 289 292 294 298 301 304 307 310 312 315 318 320 323 323 323 326 328 332 337 342 345 349 353 345 305 290 264 263 291 302 313 328 335 339 342 345 347 349 350 348 348 349 347 344 341 337 334 334 334
201 205 207 208 209 211 213 211 213 216 218 221 222 223 230 235 235 231 233 238 237 234 232 229 228 228 227 228 229 237 251 265 275 280 284 286 288 290 293 297 301 304 308 312 315 318 322 326 327 327 330 333 335 336 340 345 348 350 352 343 334 336 210 273 307 314 329 341 344 353 354 353 354 353 354 354 354 355 353 351 347 344 341 340 341
201 205 206 206 209 212 213 213 217 220 221 225 226 228 232 231 226 222 221 225 228 230 228 222 224 226 227 236 245 254 265 276 281 283 284 283 286 290 294 298 301 306 311 315 320 324 330 333 334 338 339 338 339 342 344 345 347 349 353 353 354 5 349 346 348 346 353 354 350 357 357 355 356 355 356 358 358 357 356 355 354 352 350 348 347
202 205 207 207 209 212 214 215 218 221 225 229 230 231 232 227 222 221 220 221 222 224 225 225 227 230 234 246 257 265 274 281 283 282 282 284 288 292 295 300 305 310 316 321 328 334 339 341 345 348 344 343 347 348 348 348 349 349 353 3 10 5 356 357 2 357 359 6 1 359 358 357 359 357 355 357 358 357 356 356 356 356 355 353 351
203 206 209 210 210 212 215 218 220 222 227 229 228 228 227 223 222 226 228 227 226 226 227 227 229 235 245 255 262 269 275 278 279 280 284 290 294 296 300 305 310 315 322 332 340 345 348 350 354 353 350 353 354 353 356 359 357 356 1 8 11 10 7 4 2 360 359 358 355 358 4 7 7 1 357 359 359 356 355 355 355 355 355 354 353
205 209 210 210 212 214 216 219 221 223 226 227 226 226 224 221 220 224 228 229 231 233 233 232 231 238 249 258 263 267 271 273 276 285 294 301 305 308 311 315 320 326 338 348 352 355 358 359 357 357 357 359 0 3 9 13 11 12 14 14 12 10 7 3 4 3 356 349 348 352 359 8 14 10 3 2 1 358 356 356 356 356 355 355 355
208 211 212 212 213 215 216 218 220 222 223 224 223 222 220 220 220 224 226 223 227 233 237 240 240 247 255 260 265 269 273 277 284 297 309 316 318 320 320 325 333 339 349 356 0 5 4 2 360 2 4 7 13 18 21 23 25 26 23 18 14 11 8 5 4 2 360 357 353 350 352 357 6 12 10 6 4 3 1 359 358 356 355 355 355
210 213 213 213 213 215 215 216 218 218 220 220 219 217 216 217 220 224 225 223 224 228 234 241 246 254 263 268 272 275 280 288 300 313 322 326 322 318 319 329 342 349 1 6 9 9 4 3 5 9 14 18 25 29 28 28 29 28 26 21 14 12 9 3 3 6 6 4 358 354 354 354 357 4 6 4 4 4 2 0 358 355 355 355 355
210 213 213 212 213 214 213 214 216 215 216 216 215 215 215 218 220 222 225 227 228 233 238 245 252 262 271 278 281 283 290 301 313 320 324 322 315 311 317 347 18 17 15 12 12 11 8 10 13 17 22 25 28 28 25 25 24 22 20 16 13 13 11 8 10 10 6 5 2 356 355 355 356 358 359 359 359 358 358 357 355 354 354 354 355